Athens, GA

4:15 AM EDT on April 23, 2017 (GMT -0400)
Athens / Epps

Weather History for KAHN - December, 2013

Change the Weather History Date:

Sunday, December 8, 2013

  Actual Average Record
Temperature  
Mean Temperature 44 °F 47 °F  
Max Temperature 49 °F 57 °F 78 °F (1943)
Min Temperature 39 °F 36 °F 16 °F (2010)
Degree Days  
Heating Degree Days 21 18  
Month to date heating degree days 77 138  
Since 1 July heating degree days 639 618  
Moisture  
Dew Point 42 °F    
Average Humidity 93    
Maximum Humidity 100    
Minimum Humidity 86    
Precipitation  
Precipitation 0.23 in 0.12 in 2.52 in (1919)
Month to date precipitation 1.40 1.00  
Year to date precipitation 53.67 43.60  
Snow  
Snow 0.00 in 0.00 in 0.00 in (2001)
Month to date snowfall 0.0 0.0  
Since 1 July snowfall 0.0 0.0  
Snow Depth 0.00 in    
Sea Level Pressure  
Sea Level Pressure 30.29 in    
Wind  
Wind Speed 10 mph (East)    
Max Wind Speed 17 mph    
Max Gust Speed 21 mph    
Visibility 2 miles    
Events Rain    
T = Trace of Precipitation, MM = Missing Value Source: NWS Daily Summary

Daily Weather History Graph

Daily Weather History Graph

Search for Another Location

Airport or City:

Trip Planner

Search our weather history database for the weather conditions in past years. The results will help you decide how hot, cold, wet, or windy it might be!

Date:

Astronomy

Dec. 08, 2013 Rise Set
Actual Time 7:26 AM EST 5:24 PM EST
Civil Twilight 6:58 AM EST 5:51 PM EST
Nautical Twilight 6:27 AM EST 6:22 PM EST
Astronomical Twilight 5:57 AM EST 6:53 PM EST
Moon 11:58 AM EST (12/8) 11:58 PM EST (12/8)
Length of Visible Light 10h 53m
Length of Day
9h 57m
Waxing Crescent, 40% of the Moon is Illuminated
Dec 8
Waxing Crescent
Dec 9
First Quarter
Dec 17
Full
Dec 25
Last Quarter
Jan 1
New

Hourly Weather History & Observations

Time (EST) Temp. Windchill Dew Point Humidity Pressure Visibility Wind Dir Wind Speed Gust Speed Precip Events Conditions
12:51 AM 48.0 °F - 46.0 °F 93% 30.32 in 3.0 mi East 10.4 mph - 0.00 in Rain Light Rain
12:53 AM 48.2 °F - 46.4 °F 93% 30.31 in 2.5 mi East 8.1 mph - 0.00 in Rain Light Rain
1:08 AM 48.2 °F - 46.4 °F 93% 30.31 in 3.0 mi East 9.2 mph - 0.01 in Rain Light Rain
1:51 AM 46.9 °F - 45.0 °F 93% 30.30 in 2.5 mi East 9.2 mph - 0.01 in   Overcast
2:48 AM 46.4 °F 41.9 °F 44.6 °F 93% 30.29 in 3.0 mi East 9.2 mph - 0.00 in   Overcast
2:51 AM 46.9 °F - 45.0 °F 93% 30.30 in 3.0 mi East 11.5 mph - 0.00 in   Overcast
3:35 AM 46.4 °F 42.4 °F 44.6 °F 93% 30.29 in 2.5 mi East 8.1 mph - 0.01 in Rain Light Rain
3:51 AM 46.0 °F 41.4 °F 44.1 °F 93% 30.30 in 2.0 mi ENE 9.2 mph - 0.01 in   Overcast
4:51 AM 45.0 °F 40.1 °F 44.1 °F 97% 30.29 in 2.5 mi East 9.2 mph - 0.01 in Rain Light Rain
5:09 AM 44.6 °F 40.7 °F 44.6 °F 100% 30.29 in 4.0 mi East 6.9 mph - 0.01 in Rain Light Rain
5:28 AM 44.6 °F 38.1 °F 42.8 °F 93% 30.28 in 2.5 mi East 13.8 mph - 0.01 in Rain Light Rain
5:36 AM 44.6 °F 38.8 °F 42.8 °F 93% 30.29 in 4.0 mi East 11.5 mph 18.4 mph 0.01 in Rain Light Rain
5:51 AM 45.0 °F 40.1 °F 43.0 °F 93% 30.30 in 4.0 mi East 9.2 mph 17.3 mph 0.01 in Rain Light Rain
6:51 AM 45.0 °F 41.2 °F 43.0 °F 93% 30.32 in 3.0 mi East 6.9 mph - 0.01 in Rain Light Rain
7:02 AM 44.6 °F 38.8 °F 42.8 °F 93% 30.31 in 4.0 mi East 11.5 mph - 0.00 in Rain Light Rain
7:12 AM 44.6 °F 39.2 °F 42.8 °F 93% 30.31 in 3.0 mi East 10.4 mph - 0.03 in Rain Heavy Rain
7:19 AM 44.6 °F 39.7 °F 42.8 °F 93% 30.31 in 2.5 mi East 9.2 mph - 0.06 in Rain Rain
7:30 AM 44.6 °F 40.2 °F 42.8 °F 93% 30.32 in 3.0 mi East 8.1 mph - 0.07 in Rain Light Rain
7:39 AM 44.6 °F 40.2 °F 42.8 °F 93% 30.32 in 2.0 mi East 8.1 mph - 0.07 in Rain Light Rain
7:51 AM 44.1 °F 40.8 °F 43.0 °F 96% 30.34 in 1.5 mi East 5.8 mph - 0.07 in Rain Light Rain
8:17 AM 44.6 °F 39.2 °F 42.8 °F 93% 30.32 in 1.2 mi East 10.4 mph - 0.02 in Rain Light Rain
8:30 AM 44.6 °F 38.8 °F 42.8 °F 93% 30.32 in 1.8 mi ESE 11.5 mph 17.3 mph 0.03 in Rain Light Rain
8:42 AM 44.6 °F 39.2 °F 42.8 °F 93% 30.32 in 2.0 mi East 10.4 mph - 0.04 in Rain Light Rain
8:51 AM 44.1 °F 39.5 °F 42.1 °F 93% 30.33 in 3.0 mi East 8.1 mph - 0.04 in Rain Light Rain
9:51 AM 44.1 °F 40.1 °F 42.1 °F 93% 30.34 in 4.0 mi East 6.9 mph - 0.00 in   Overcast
10:13 AM 44.6 °F 39.2 °F 42.8 °F 93% 30.34 in 2.0 mi ENE 10.4 mph - N/A   Overcast
10:25 AM 44.6 °F 38.4 °F 42.8 °F 93% 30.33 in 3.0 mi East 12.7 mph 17.3 mph 0.00 in Rain Light Rain
10:32 AM 44.6 °F 39.7 °F 42.8 °F 93% 30.33 in 1.8 mi East 9.2 mph - 0.00 in Rain Light Rain
10:42 AM 44.6 °F 40.2 °F 42.8 °F 93% 30.32 in 1.2 mi East 8.1 mph - 0.00 in Rain Light Rain
10:51 AM 44.1 °F 38.6 °F 42.1 °F 93% 30.33 in 1.5 mi ENE 10.4 mph - 0.01 in Rain Light Rain
11:13 AM 44.6 °F 39.2 °F 42.8 °F 93% 30.33 in 1.5 mi ENE 10.4 mph - 0.00 in Rain Light Rain
11:26 AM 44.6 °F 38.8 °F 42.8 °F 93% 30.32 in 1.2 mi ENE 11.5 mph - 0.01 in   Overcast
11:47 AM 44.6 °F 39.2 °F 42.8 °F 93% 30.32 in 1.5 mi East 10.4 mph - 0.01 in Rain Light Rain
11:51 AM 44.1 °F 38.6 °F 42.1 °F 93% 30.32 in 1.8 mi ENE 10.4 mph - 0.01 in Rain Light Rain
11:59 AM 44.6 °F 40.2 °F 42.8 °F 93% 30.31 in 2.0 mi NE 8.1 mph - 0.00 in Rain Light Rain
12:17 PM 44.6 °F 39.2 °F 42.8 °F 93% 30.30 in 1.5 mi ENE 10.4 mph - 0.00 in   Overcast
12:48 PM 44.6 °F 38.8 °F 42.8 °F 93% 30.29 in 1.0 mi NE 11.5 mph - 0.01 in Rain Light Rain
12:51 PM 44.1 °F 38.6 °F 42.1 °F 93% 30.30 in 1.0 mi ENE 10.4 mph - 0.01 in Rain Light Rain
1:06 PM 42.8 °F 36.2 °F 41.0 °F 93% 30.27 in 2.0 mi ENE 12.7 mph - 0.01 in Rain Light Rain
1:24 PM 42.8 °F 36.2 °F 41.0 °F 93% 30.26 in 3.0 mi East 12.7 mph - 0.02 in Rain Light Rain
1:30 PM 42.8 °F 36.6 °F 41.0 °F 93% 30.26 in 1.8 mi ENE 11.5 mph - 0.02 in Rain Light Rain
1:51 PM 43.0 °F 36.4 °F 42.1 °F 97% 30.26 in 2.0 mi East 12.7 mph - 0.02 in Rain Light Rain
2:08 PM 42.8 °F 35.8 °F 41.0 °F 93% 30.24 in 4.0 mi East 13.8 mph 18.4 mph 0.01 in Rain Light Rain
2:51 PM 42.1 °F 35.7 °F 39.9 °F 92% 30.25 in 4.0 mi ENE 11.5 mph 18.4 mph 0.01 in   Overcast
3:32 PM 42.8 °F 37.0 °F 39.2 °F 87% 30.24 in 4.0 mi East 10.4 mph - 0.00 in Rain Light Rain
3:51 PM 42.1 °F 34.9 °F 39.9 °F 92% 30.25 in 3.0 mi East 13.8 mph - 0.00 in   Overcast
4:08 PM 42.8 °F 37.0 °F 39.2 °F 87% 30.24 in 2.5 mi East 10.4 mph 20.7 mph N/A   Overcast
4:30 PM 42.8 °F 36.6 °F 39.2 °F 87% 30.25 in 2.5 mi ENE 11.5 mph - N/A   Overcast
4:41 PM 42.8 °F 36.6 °F 39.2 °F 87% 30.25 in 3.0 mi East 11.5 mph - N/A   Overcast
4:51 PM 41.0 °F 33.5 °F 39.9 °F 96% 30.26 in 3.0 mi East 13.8 mph - N/A   Overcast
5:19 PM 41.0 °F 35.8 °F 39.2 °F 93% 30.25 in 2.5 mi East 8.1 mph - N/A   Overcast
5:27 PM 41.0 °F 35.8 °F 39.2 °F 93% 30.26 in 3.0 mi East 8.1 mph - N/A   Overcast
5:41 PM 41.0 °F 35.8 °F 39.2 °F 93% 30.26 in 2.5 mi East 8.1 mph - N/A   Overcast
5:51 PM 41.0 °F 35.8 °F 39.9 °F 96% 30.27 in 2.0 mi East 8.1 mph - N/A   Overcast
5:58 PM 41.0 °F 35.8 °F 39.2 °F 93% 30.26 in 1.8 mi East 8.1 mph - N/A   Overcast
6:16 PM 41.0 °F 34.3 °F 39.2 °F 93% 30.25 in 2.5 mi ENE 11.5 mph - 0.00 in   Overcast
6:26 PM 41.0 °F 34.7 °F 39.2 °F 93% 30.25 in 3.0 mi East 10.4 mph - 0.00 in   Overcast
6:51 PM 41.0 °F 34.7 °F 39.0 °F 93% 30.27 in 4.0 mi East 10.4 mph - 0.00 in   Overcast
7:51 PM 39.9 °F 34.5 °F 39.0 °F 97% 30.30 in 2.0 mi ENE 8.1 mph - N/A   Overcast
8:14 PM 39.2 °F 33.0 °F 39.2 °F 100% 30.28 in 1.8 mi ENE 9.2 mph - N/A   Overcast
8:33 PM 39.2 °F 32.5 °F 39.2 °F 100% 30.27 in 2.0 mi NE 10.4 mph - 0.01 in   Overcast
8:51 PM 39.9 °F 32.5 °F 39.0 °F 97% 30.28 in 2.5 mi ENE 12.7 mph - 0.01 in   Overcast
9:51 PM 39.9 °F 33.4 °F 37.9 °F 93% 30.27 in 4.0 mi East 10.4 mph - N/A   Overcast
10:29 PM 39.2 °F 33.0 °F 37.4 °F 93% 30.24 in 2.5 mi East 9.2 mph - N/A   Overcast
10:51 PM 39.0 °F 32.8 °F 37.9 °F 96% 30.26 in 2.0 mi East 9.2 mph - N/A   Overcast
11:05 PM 39.2 °F 33.6 °F 37.4 °F 93% 30.24 in 1.8 mi ENE 8.1 mph - N/A   Overcast
11:51 PM 39.0 °F 34.0 °F 37.9 °F 96% 30.25 in 1.5 mi ENE 6.9 mph - N/A   Overcast